Snowfall_Accumulation
0.2 0.1 0.2 0.3 0.4 0.3 0.4 0.6 0.8 0.6 0.5 0.3 0.3 0.3 0.1 0.1 0.0 0.0 0.0 0.0 0.0 0.0 0.0 0.0 0.0 0.0 0.0 0.0 0.0 0.0 0.0 0.0 0.0 0.0 0.0 0.0 0.0 0.0 0.0 0.0 0.0 0.0 0.0 0.0
0.2 0.2 0.2 0.3 0.3 0.3 0.4 0.4 0.5 0.5 0.4 0.4 0.4 0.1 0.1 0.1 0.1 0.1 0.0 0.0 0.0 0.0 0.0 0.0 0.0 0.0 0.0 0.0 0.0 0.0 0.0 0.0 0.0 0.0 0.0 0.0 0.0 0.0 0.0 0.0 0.0 0.0 0.0 0.0
0.7 0.3 0.4 1.1 0.9 0.8 0.8 0.7 0.7 0.8 0.5 0.3 0.3 0.3 0.2 0.2 0.2 0.0 0.0 0.0 0.0 0.0 0.0 0.0 0.0 0.0 0.0 0.0 0.0 0.0 0.0 0.0 0.0 0.0 0.0 0.0 0.0 0.0 0.0 0.0 0.0 0.0 0.0 0.0
1.2 1.0 2.2 1.7 0.8 0.8 0.9 1.0 0.8 0.7 0.5 0.3 0.2 0.2 0.1 0.0 0.1 0.0 0.0 0.0 0.0 0.0 0.0 0.0 0.0 0.0 0.0 0.0 0.0 0.0 0.0 0.0 0.0 0.0 0.0 0.0 0.0 0.0 0.0 0.0 0.0 0.0 0.0 0.0
2.1 2.0 1.2 0.9 0.7 1.2 1.2 1.2 0.6 0.6 0.4 0.3 0.1 0.1 0.1 0.0 0.0 0.0 0.0 0.0 0.0 0.0 0.0 0.0 0.0 0.0 0.0 0.0 0.0 0.0 0.0 0.0 0.0 0.0 0.0 0.0 0.0 0.0 0.0 0.0 0.0 0.0 0.0 0.0
2.5 3.4 2.4 1.5 0.3 0.5 0.7 1.8 0.6 0.4 0.4 0.4 0.3 0.5 0.3 0.0 0.0 0.0 0.0 0.0 0.0 0.0 0.0 0.0 0.0 0.0 0.0 0.0 0.0 0.0 0.0 0.0 0.0 0.0 0.0 0.0 0.0 0.0 0.0 0.0 0.0 0.0 0.0 0.0
3.0 3.3 1.6 1.0 0.2 0.2 1.0 2.8 0.6 0.4 0.4 0.4 0.6 0.6 0.2 0.0 0.0 0.0 0.0 0.0 0.0 0.0 0.0 0.0 0.0 0.0 0.0 0.0 0.0 0.0 0.0 0.0 0.0 0.0 0.0 0.0 0.0 0.0 0.0 0.0 0.0 0.0 0.0 0.0
2.3 3.9 2.4 0.6 0.4 0.9 1.0 0.6 0.2 0.3 0.3 0.4 0.3 0.0 0.0 0.0 0.0 0.0 0.0 0.0 0.0 0.0 0.0 0.0 0.0 0.0 0.0 0.0 0.0 0.0 0.0 0.0 0.0 0.0 0.0 0.0 0.0 0.0 0.0 0.0 0.0 0.0 0.0 0.0
2.1 1.9 0.9 0.4 0.5 0.4 0.3 0.5 0.2 0.2 0.1 0.1 0.0 0.0 0.0 0.0 0.0 0.0 0.0 0.0 0.0 0.0 0.0 0.0 0.0 0.0 0.0 0.0 0.0 0.0 0.0 0.0 0.0 0.0 0.0 0.0 0.0 0.0 0.0 0.0 0.0 0.0 0.0 0.0
1.8 0.9 0.5 0.3 0.2 0.1 0.2 0.3 0.1 0.1 0.1 0.0 0.0 0.0 0.0 0.0 0.0 0.0 0.0 0.0 0.0 0.0 0.0 0.0 0.0 0.0 0.0 0.0 0.0 0.0 0.0 0.0 0.0 0.0 0.0 0.0 0.0 0.0 0.0 0.0 0.0 0.1 0.1 0.1
1.6 0.8 0.5 0.3 0.2 0.2 0.2 0.1 0.2 0.0 0.0 0.0 0.0 0.0 0.0 0.0 0.0 0.0 0.0 0.0 0.0 0.0 0.0 0.0 0.0 0.0 0.0 0.0 0.0 0.0 0.0 0.0 0.0 0.0 0.0 0.0 0.0 0.0 0.0 0.0 0.0 0.1 0.2 0.3
1.8 0.9 1.0 0.6 0.2 0.1 0.1 0.1 0.1 0.1 0.0 0.0 0.0 0.0 0.0 0.0 0.0 0.0 0.0 0.0 0.0 0.0 0.0 0.0 0.0 0.0 0.0 0.0 0.0 0.0 0.0 0.0 0.0 0.0 0.0 0.0 0.0 0.0 0.0 0.0 0.0 0.0 0.0 0.1
1.0 0.6 0.6 0.4 0.2 0.0 0.1 0.0 0.0 0.0 0.0 0.0 0.0 0.0 0.0 0.0 0.0 0.0 0.0 0.0 0.0 0.0 0.0 0.0 0.0 0.0 0.0 0.0 0.0 0.0 0.0 0.0 0.0 0.0 0.0 0.0 0.0 0.0 0.0 0.0 0.0 0.0 0.0 0.0
0.4 0.4 0.5 0.4 0.5 0.1 0.0 0.0 0.0 0.0 0.0 0.0 0.0 0.0 0.0 0.0 0.0 0.0 0.0 0.0 0.0 0.0 0.0 0.0 0.0 0.0 0.0 0.0 0.0 0.0 0.0 0.0 0.0 0.0 0.0 0.0 0.0 0.1 0.1 0.1 0.0 0.0 0.0 0.0
0.3 0.3 0.5 0.4 0.2 0.1 0.0 0.0 0.1 0.1 0.0 0.0 0.0 0.0 0.0 0.0 0.0 0.0 0.0 0.0 0.0 0.0 0.0 0.0 0.0 0.0 0.0 0.0 0.0 0.0 0.0 0.0 0.0 0.0 0.0 0.0 0.0 0.1 0.1 0.1 0.1 0.1 0.0 0.0
0.2 0.2 0.3 0.4 0.2 0.1 0.1 0.1 0.1 0.0 0.0 0.0 0.0 0.0 0.0 0.0 0.0 0.0 0.0 0.0 0.0 0.1 0.0 0.1 0.0 0.0 0.0 0.0 0.0 0.0 0.0 0.0 0.1 0.1 0.0 0.0 0.0 0.1 0.1 0.1 0.1 0.1 0.1 0.1
0.4 0.4 0.3 0.4 0.4 0.2 0.1 0.1 0.1 0.1 0.1 0.0 0.0 0.0 0.0 0.0 0.0 0.0 0.0 0.0 0.0 0.0 0.0 0.0 0.0 0.0 0.0 0.0 0.0 0.0 0.1 0.0 0.0 0.0 0.0 0.1 0.1 0.2 0.2 0.2 0.2 0.2 0.2 0.1
0.3 0.3 0.3 0.3 0.2 0.1 0.1 0.1 0.1 0.1 0.1 0.0 0.0 0.0 0.0 0.0 0.1 0.1 0.0 0.0 0.0 0.0 0.0 0.0 0.0 0.0 0.0 0.0 0.0 0.0 0.1 0.1 0.0 0.1 0.1 0.1 0.1 0.1 0.2 0.3 0.3 0.3 0.3 0.3
0.1 0.1 0.1 0.1 0.1 0.1 0.1 0.1 0.0 0.1 0.0 0.0 0.0 0.0 0.1 0.1 0.1 0.0 0.0 0.0 0.1 0.1 0.0 0.0 0.0 0.0 0.0 0.0 0.1 0.1 0.1 0.1 0.1 0.1 0.1 0.2 0.2 0.3 0.3 0.4 0.6 0.6 0.6 0.6
0.1 0.1 0.1 0.1 0.1 0.1 0.1 0.1 0.1 0.1 0.0 0.0 0.1 0.1 0.1 0.1 0.1 0.1 0.0 0.1 0.1 0.1 0.0 0.0 0.0 0.0 0.0 0.1 0.1 0.1 0.1 0.1 0.2 0.2 0.2 0.2 0.4 0.4 0.4 0.5 0.6 0.7 0.7 0.9
0.1 0.1 0.1 0.1 0.1 0.1 0.1 0.2 0.1 0.1 0.1 0.1 0.1 0.2 0.2 0.1 0.1 0.1 0.2 0.3 0.1 0.0 0.0 0.0 0.0 0.1 0.2 0.3 0.1 0.2 0.2 0.3 0.3 0.4 0.4 0.4 0.5 0.5 0.4 0.5 0.6 0.7 0.8 0.9
0.1 0.1 0.1 0.1 0.1 0.2 0.2 0.2 0.3 0.3 0.3 0.3 0.2 0.2 0.2 0.2 0.3 0.2 0.2 0.2 0.1 0.1 0.1 0.1 0.1 0.2 0.4 0.3 0.2 0.2 0.2 0.2 0.3 0.3 0.5 0.4 0.5 0.6 0.5 0.6 0.9 0.7 0.9 0.9
0.1 0.1 0.1 0.1 0.1 0.1 0.1 0.1 0.2 0.2 0.3 0.4 0.4 0.4 0.3 0.3 0.4 0.6 0.6 0.2 0.1 0.2 0.2 0.1 0.1 0.3 0.3 0.4 0.2 0.3 0.3 0.3 0.3 0.4 0.4 0.5 0.5 0.6 0.7 0.7 0.7 0.7 0.8 0.9
0.2 0.4 0.1 0.1 0.1 0.1 0.2 0.2 0.2 0.2 0.3 0.3 0.3 0.3 0.4 0.5 0.5 0.2 0.2 0.3 0.1 0.2 0.4 0.2 0.2 0.2 0.4 0.3 0.3 0.3 0.3 0.3 0.4 0.5 0.5 0.6 0.6 0.7 0.8 0.9 0.8 0.8 0.7 0.7
0.3 0.2 0.1 0.2 0.2 0.3 0.4 0.4 0.3 0.3 0.3 0.3 0.3 0.3 0.2 0.3 0.5 0.4 0.3 0.4 0.3 0.4 0.5 0.2 0.2 0.2 0.3 0.2 0.3 0.3 0.3 0.4 0.5 0.6 0.6 0.7 0.7 0.8 0.8 0.9 0.9 0.9 0.8 0.7
0.4 0.4 0.5 0.4 0.5 0.4 0.4 0.4 0.5 0.4 0.4 0.4 0.3 0.2 0.2 0.2 0.3 0.3 0.3 0.3 0.3 0.4 0.6 0.5 0.5 0.4 0.4 0.3 0.3 0.3 0.3 0.5 0.6 0.6 0.6 0.6 0.6 0.8 0.8 0.8 0.8 1.1 1.1 0.8
0.3 0.2 0.4 0.3 0.3 0.4 0.4 0.5 0.7 0.6 0.6 0.6 0.6 0.4 0.4 0.4 0.4 0.5 0.5 0.6 0.5 0.6 0.6 0.8 0.4 0.5 0.4 0.4 0.4 0.4 0.4 0.5 0.6 0.7 0.8 0.8 0.9 1.1 1.2 1.0 1.1 1.2 1.1 1.1